Muncie, IN

7:20 PM EDT on August 27, 2016 (GMT -0400)
Delaware County-Johnson

Weather History for KMIE - June, 2012

Change the Weather History Date:

Saturday, June 16, 2012

  Actual Average Record
Temperature  
Mean Temperature 80 °F 72 °F  
Max Temperature 91 °F 82 °F 95 °F (1967)
Min Temperature 69 °F 62 °F 40 °F (1969)
Degree Days  
Heating Degree Days 0 1  
Month to date heating degree days 25 21  
Since 1 June heating degree days 25 21  
Since 1 July heating degree days 4686 5780  
Cooling Degree Days 15 7  
Month to date cooling degree days 68 92  
Year to date cooling degree days 246 175  
Since 1 June cooling degree days 68 92  
Growing Degree Days 30 (Base 50)    
Moisture  
Dew Point 62 °F    
Average Humidity 54    
Maximum Humidity 78    
Minimum Humidity 30    
Precipitation  
Precipitation 0.00 in 0.15 in 1.07 in (1982)
Month to date precipitation 0.69 2.53  
Year to date precipitation 12.93 18.10  
Sea Level Pressure  
Sea Level Pressure 30.04 in    
Wind  
Wind Speed 7 mph (South)    
Max Wind Speed 16 mph    
Max Gust Speed 22 mph    
Visibility 10 miles    
Events Thunderstorm    
T = Trace of Precipitation, MM = Missing Value Source: NWS Daily Summary

Daily Weather History Graph

Daily Weather History Graph

Search for Another Location

Airport or City:

Trip Planner

Search our weather history database for the weather conditions in past years. The results will help you decide how hot, cold, wet, or windy it might be!

Date:

Astronomy

Jun. 16, 2012 Rise Set
Actual Time 6:11 AM EDT 9:13 PM EDT
Civil Twilight 5:38 AM EDT 9:46 PM EDT
Nautical Twilight 4:56 AM EDT 10:28 PM EDT
Astronomical Twilight 4:07 AM EDT 11:17 PM EDT
Moon 4:00 AM EDT (6/16) 6:47 PM EDT (6/16)
Length of Visible Light 16h 08m
Length of Day
15h 02m
Waning Crescent, 8% of the Moon is Illuminated
Jun 16
Waning Crescent
Jun 19
New
Jun 26
First Quarter
Jul 3
Full
Jul 10
Last Quarter

Hourly Weather History & Observations

Time (EDT) Temp. Heat Index Dew Point Humidity Pressure Visibility Wind Dir Wind Speed Gust Speed Precip Events Conditions
12:53 AM 73.0 °F - 54.0 °F 51% 30.07 in 10.0 mi South 3.5 mph - N/A   Clear
1:53 AM 72.0 °F - 55.9 °F 57% 30.07 in 10.0 mi SSE 4.6 mph - N/A   Clear
2:53 AM 71.1 °F - 57.0 °F 61% 30.07 in 10.0 mi SSE 4.6 mph - N/A   Clear
3:53 AM 70.0 °F - 59.0 °F 68% 30.08 in 10.0 mi SSE 3.5 mph - N/A   Clear
4:53 AM 69.1 °F - 60.1 °F 73% 30.08 in 10.0 mi SSE 4.6 mph - N/A   Clear
6:53 AM 70.0 °F - 62.1 °F 76% 30.11 in 9.0 mi South 4.6 mph - N/A   Clear
7:53 AM 73.0 °F - 63.0 °F 71% 30.13 in 10.0 mi South 8.1 mph - N/A   Clear
8:53 AM 77.0 °F - 64.0 °F 64% 30.13 in 10.0 mi South 5.8 mph - N/A   Clear
9:53 AM 80.1 °F 81.7 °F 64.0 °F 58% 30.12 in 10.0 mi SSW 5.8 mph - N/A   Clear
10:53 AM 82.9 °F 84.4 °F 64.0 °F 53% 30.11 in 10.0 mi SW 5.8 mph - N/A   Clear
11:53 AM 86.0 °F 87.3 °F 64.0 °F 48% 30.10 in 10.0 mi South 4.6 mph - N/A   Clear
12:53 PM 87.1 °F 87.8 °F 63.0 °F 44% 30.09 in 10.0 mi Variable 3.5 mph - N/A   Clear
1:53 PM 88.0 °F 88.7 °F 63.0 °F 43% 30.07 in 10.0 mi South 11.5 mph - N/A   Mostly Cloudy
2:53 PM 90.0 °F 89.7 °F 60.1 °F 37% 30.05 in 10.0 mi SSW 9.2 mph - N/A   Clear
3:53 PM 91.0 °F 90.2 °F 59.0 °F 34% 30.02 in 10.0 mi SW 11.5 mph 16.1 mph N/A   Scattered Clouds
4:53 PM 91.0 °F 89.2 °F 55.9 °F 30% 30.01 in 10.0 mi WSW 11.5 mph - N/A   Partly Cloudy
5:53 PM 89.1 °F 88.2 °F 59.0 °F 36% 30.00 in 10.0 mi SSW 8.1 mph 18.4 mph N/A   Clear
6:38 PM 87.8 °F 88.5 °F 62.6 °F 43% 30.01 in 10.0 mi SSW 10.4 mph - N/A Thunderstorm Thunderstorm
6:53 PM 87.1 °F 87.5 °F 62.1 °F 43% 29.98 in 10.0 mi South 11.5 mph - N/A Thunderstorm Clear
7:23 PM 84.2 °F 85.0 °F 62.6 °F 48% 30.00 in 10.0 mi South 13.8 mph 19.6 mph N/A   Clear
7:40 PM 84.2 °F 85.0 °F 62.6 °F 48% 30.00 in 10.0 mi South 12.7 mph 19.6 mph N/A Thunderstorm Clear
7:53 PM 84.0 °F 85.4 °F 64.0 °F 51% 29.97 in 10.0 mi South 11.5 mph - N/A   Clear
8:53 PM 84.0 °F 84.9 °F 63.0 °F 49% 29.97 in 10.0 mi SSW 9.2 mph 19.6 mph N/A   Clear
9:53 PM 82.0 °F 83.1 °F 63.0 °F 52% 29.97 in 10.0 mi South 9.2 mph - N/A   Clear
10:53 PM 80.1 °F 82.3 °F 66.9 °F 64% 29.96 in 10.0 mi SSW 6.9 mph - N/A   Clear
11:53 PM 79.0 °F - 66.9 °F 66% 29.95 in 10.0 mi SSW 9.2 mph 18.4 mph N/A   Clear